Harvey, ND

11:34 PM CDT on March 22, 2017 (GMT -0500)
Harvey

Weather History for K5H4 - January, 2014

Change the Weather History Date:

Thursday, January 23, 2014

  Actual Average (KRUG) Record (KRUG)
Temperature  
Mean Temperature 6 °F -  
Max Temperature 28 °F 20 °F 44 °F (1981)
Min Temperature -16 °F 1 °F -34 °F (1966)
Degree Days  
Heating Degree Days 59    
Moisture  
Dew Point -4 °F    
Average Humidity 76    
Maximum Humidity 93    
Minimum Humidity 61    
Precipitation  
Precipitation 0.00 in - - ()
Sea Level Pressure  
Sea Level Pressure 30.34 in    
Wind  
Wind Speed 12 mph (WSW)    
Max Wind Speed 28 mph    
Max Gust Speed 37 mph    
Visibility 10 miles    
Events Snow    
Averages and records for this station are not official NWS values.
T = Trace of Precipitation, MM = Missing Value Source: NWS Daily Summary

Daily Weather History Graph

Daily Weather History Graph

Search for Another Location

Airport or City:

Trip Planner

Search our weather history database for the weather conditions in past years. The results will help you decide how hot, cold, wet, or windy it might be!

Date:

Astronomy

Jan. 23, 2014 Rise Set
Actual Time 8:17 AM CST 5:26 PM CST
Civil Twilight 7:43 AM CST 6:00 PM CST
Nautical Twilight 7:05 AM CST 6:38 PM CST
Astronomical Twilight 6:28 AM CST 7:15 PM CST
Moon 12:31 AM CST 11:19 AM CST
Length of Visible Light 10h 17m
Length of Day
9h 09m
Waning Gibbous, 55% of the Moon is Illuminated
Jan 23
Waning Gibbous
Jan 23
Last Quarter
Jan 30
New
Feb 6
First Quarter
Feb 14
Full

Hourly Weather History & Observations

Time (CST) Temp. Windchill Dew Point Humidity Pressure Visibility Wind Dir Wind Speed Gust Speed Precip Events Conditions
12:15 AM -11.2 °F -26.4 °F -16.6 °F 77% 30.64 in 10.0 mi West 6.9 mph - N/A   Clear
12:35 AM - - - N/A% 30.64 in 10.0 mi WSW 6.9 mph - N/A   Clear
12:55 AM -11.2 °F -27.8 °F -16.6 °F 77% 30.65 in 10.0 mi WNW 8.1 mph - N/A   Clear
1:15 AM -11.2 °F -26.4 °F -18.4 °F 70% 30.65 in 10.0 mi West 6.9 mph - N/A   Clear
1:35 AM -11.2 °F -27.8 °F -18.4 °F 70% 30.65 in 10.0 mi West 8.1 mph - N/A   Clear
1:55 AM -11.2 °F -27.8 °F -18.4 °F 70% 30.65 in 10.0 mi WNW 8.1 mph - N/A   Clear
2:15 AM -13.0 °F -22.7 °F -20.2 °F 70% 30.65 in 10.0 mi NW 3.5 mph - N/A   Clear
2:35 AM -13.0 °F -25.1 °F -18.4 °F 77% 30.65 in 10.0 mi West 4.6 mph - N/A   Clear
2:55 AM -13.0 °F -28.6 °F -18.4 °F 77% 30.65 in 10.0 mi WNW 6.9 mph - N/A   Clear
3:15 AM -13.0 °F -25.1 °F -18.4 °F 77% 30.65 in 10.0 mi West 4.6 mph - N/A   Clear
3:35 AM -13.0 °F -28.6 °F -18.4 °F 77% 30.65 in 10.0 mi West 6.9 mph - N/A   Clear
3:55 AM -13.0 °F -27.0 °F -18.4 °F 77% 30.65 in 10.0 mi WNW 5.8 mph - N/A   Clear
4:15 AM -13.0 °F -25.1 °F -18.4 °F 77% 30.65 in 10.0 mi WNW 4.6 mph - N/A   Clear
4:35 AM -13.0 °F -30.0 °F -18.4 °F 77% 30.64 in 10.0 mi West 8.1 mph - N/A   Clear
4:55 AM -13.0 °F -30.0 °F -20.2 °F 70% 30.64 in 10.0 mi WSW 8.1 mph - N/A   Clear
5:15 AM -14.8 °F -30.8 °F -20.2 °F 77% 30.64 in 10.0 mi WSW 6.9 mph - N/A   Clear
5:35 AM -14.8 °F -32.2 °F -20.2 °F 77% 30.64 in 10.0 mi SW 8.1 mph - N/A   Clear
5:55 AM -16.6 °F -34.4 °F -22.0 °F 76% 30.63 in 10.0 mi SW 8.1 mph - N/A   Clear
6:15 AM -16.6 °F -34.4 °F -22.0 °F 76% 30.63 in 10.0 mi SW 8.1 mph - N/A   Clear
6:35 AM -16.6 °F -35.7 °F -22.0 °F 76% 30.63 in 10.0 mi SW 9.2 mph - N/A   Clear
6:55 AM -16.6 °F -34.4 °F -22.0 °F 76% 30.63 in 10.0 mi WSW 8.1 mph - N/A   Clear
7:15 AM -16.6 °F -36.8 °F -22.0 °F 76% 30.62 in 10.0 mi WSW 10.4 mph - N/A   Clear
7:35 AM -16.6 °F -36.8 °F -22.0 °F 76% 30.62 in 10.0 mi WSW 10.4 mph - N/A   Clear
7:55 AM -16.6 °F -36.8 °F -22.0 °F 76% 30.61 in 10.0 mi WSW 10.4 mph - N/A   Clear
8:15 AM -16.6 °F -35.7 °F -20.2 °F 84% 30.60 in 10.0 mi WSW 9.2 mph - N/A   Clear
8:35 AM -16.6 °F -34.4 °F -20.2 °F 84% 30.58 in 10.0 mi SW 8.1 mph - N/A   Clear
8:55 AM -13.0 °F -32.4 °F -18.4 °F 77% 30.57 in 10.0 mi SW 10.4 mph - N/A   Clear
9:15 AM -13.0 °F -28.6 °F -18.4 °F 77% 30.57 in 10.0 mi SW 6.9 mph - N/A   Clear
9:35 AM -11.2 °F -31.1 °F -16.6 °F 77% 30.55 in 10.0 mi SW 11.5 mph - N/A   Clear
9:55 AM -9.4 °F -26.8 °F -14.8 °F 77% 30.54 in 10.0 mi SW 9.2 mph - N/A   Clear
10:15 AM -7.6 °F -23.4 °F -13.0 °F 77% 30.52 in 10.0 mi SSW 8.1 mph - N/A   Clear
10:35 AM -4.0 °F -17.8 °F - N/A% 30.51 in 10.0 mi SW 6.9 mph - N/A   Clear
10:55 AM -2.2 °F -18.9 °F -11.2 °F 66% 30.50 in 10.0 mi SW 10.4 mph - N/A   Clear
11:15 AM -0.4 °F -17.6 °F -9.4 °F 66% 30.47 in 10.0 mi SSW 11.5 mph - N/A   Clear
11:35 AM 1.4 °F -18.2 °F -9.4 °F 61% 30.46 in 10.0 mi SW 16.1 mph - N/A   Clear
11:55 AM 1.4 °F -16.1 °F -7.6 °F 66% 30.44 in 10.0 mi SW 12.7 mph - N/A   Clear
12:15 PM 3.2 °F -18.6 °F -4.0 °F 72% 30.42 in 10.0 mi SW 21.9 mph - N/A   Clear
12:35 PM 3.2 °F -15.9 °F -4.0 °F 72% 30.41 in 10.0 mi SW 16.1 mph - N/A   Clear
12:55 PM 5.0 °F -13.6 °F -2.2 °F 72% 30.40 in 10.0 mi WSW 16.1 mph 20.7 mph N/A   Clear
1:15 PM 5.0 °F -12.3 °F -0.4 °F 78% 30.38 in 10.0 mi SW 13.8 mph - N/A   Clear
1:35 PM 6.8 °F -10.7 °F -0.4 °F 72% 30.36 in 10.0 mi SW 15.0 mph - N/A   Clear
1:55 PM 6.8 °F -11.8 °F -0.4 °F 72% 30.33 in 10.0 mi SW 17.3 mph - N/A   Clear
2:15 PM 8.6 °F -10.0 °F 1.4 °F 73% 30.30 in 10.0 mi SW 18.4 mph 23.0 mph N/A   Clear
2:35 PM 8.6 °F -11.0 °F 1.4 °F 73% 30.27 in 10.0 mi SW 20.7 mph 26.5 mph N/A   Clear
2:55 PM 8.6 °F -11.4 °F 1.4 °F 73% 30.23 in 10.0 mi SW 21.9 mph 28.8 mph N/A   Clear
3:15 PM 10.4 °F -8.2 °F 3.2 °F 73% 30.22 in 10.0 mi SW 19.6 mph 26.5 mph N/A   Clear
3:35 PM 10.4 °F -10.3 °F 5.0 °F 79% 30.20 in 10.0 mi SW 25.3 mph 31.1 mph N/A   Clear
3:55 PM 10.4 °F -9.5 °F 5.0 °F 79% 30.18 in 10.0 mi SW 23.0 mph 27.6 mph N/A   Clear
4:15 PM 10.4 °F -9.5 °F 5.0 °F 79% 30.16 in 10.0 mi SW 23.0 mph 26.5 mph N/A   Clear
4:35 PM 10.4 °F -8.6 °F 5.0 °F 79% 30.14 in 10.0 mi SW 20.7 mph 26.5 mph N/A   Clear
4:55 PM 12.2 °F -6.7 °F 5.0 °F 73% 30.12 in 10.0 mi SW 21.9 mph 29.9 mph N/A   Clear
5:15 PM 14.0 °F -4.7 °F 6.8 °F 73% 30.10 in 10.0 mi WSW 23.0 mph 29.9 mph N/A   Clear
5:35 PM 14.0 °F -5.8 °F 8.6 °F 79% 30.07 in 10.0 mi SW 26.5 mph 33.4 mph N/A   Clear
5:55 PM 15.8 °F -3.4 °F 8.6 °F 73% 30.05 in 10.0 mi SW 26.5 mph 33.4 mph N/A   Partly Cloudy
6:15 PM 15.8 °F -2.7 °F 10.4 °F 79% 30.03 in 10.0 mi SW 24.2 mph 34.5 mph N/A   Mostly Cloudy
6:35 PM 15.8 °F -3.1 °F 10.4 °F 79% 30.00 in 10.0 mi SW 25.3 mph 29.9 mph N/A   Partly Cloudy
6:55 PM 17.6 °F -1.3 °F 12.2 °F 79% 29.98 in 10.0 mi WSW 27.6 mph 36.8 mph N/A   Clear
7:15 PM 19.4 °F 1.4 °F 14.0 °F 80% 29.98 in 10.0 mi WSW 26.5 mph 35.7 mph N/A   Clear
7:35 PM 19.4 °F 1.8 °F 14.0 °F 80% 29.96 in 10.0 mi WSW 25.3 mph 33.4 mph N/A   Scattered Clouds
7:55 PM 21.2 °F 3.9 °F 15.8 °F 80% 29.94 in 10.0 mi WSW 26.5 mph 31.1 mph N/A   Overcast
8:35 PM 23.0 °F 7.6 °F 15.8 °F 74% 29.90 in 10.0 mi WSW 21.9 mph 31.1 mph N/A   Scattered Clouds
8:55 PM 23.0 °F 7.6 °F 15.8 °F 74% 29.88 in 10.0 mi WSW 21.9 mph - N/A   Partly Cloudy
9:15 PM 23.0 °F 8.7 °F 17.6 °F 80% 29.87 in 9.0 mi WSW 18.4 mph 26.5 mph N/A Snow Light Snow
9:55 PM 24.8 °F 10.7 °F 19.4 °F 80% 29.84 in 4.0 mi West 19.6 mph 27.6 mph N/A Snow Light Snow
10:15 PM 24.8 °F 10.3 °F 23.0 °F 93% 29.82 in 8.0 mi West 20.7 mph 24.2 mph N/A Snow Light Snow
10:35 PM 26.6 °F 12.0 °F 21.2 °F 80% 29.79 in 10.0 mi WSW 23.0 mph 27.6 mph N/A   Overcast
10:55 PM 26.6 °F 12.7 °F 21.2 °F 80% 29.78 in 10.0 mi West 20.7 mph 26.5 mph N/A   Mostly Cloudy
11:15 PM 28.4 °F 15.1 °F 21.2 °F 74% 29.78 in 10.0 mi West 20.7 mph 26.5 mph N/A   Mostly Cloudy
11:35 PM 28.4 °F 15.1 °F 21.2 °F 74% 29.78 in 10.0 mi West 20.7 mph 27.6 mph N/A   Partly Cloudy
11:55 PM 28.4 °F 14.7 °F 21.2 °F 74% 29.77 in 10.0 mi West 21.9 mph 28.8 mph N/A   Partly Cloudy